Time,TemperatureF,DewpointF,PressureIn,WindDirection,WindDirectionDegrees,WindSpeedMPH,WindSpeedGustMPH,Humidity,HourlyPrecipIn,Conditions,Clouds,dailyrainin,SoftwareType,DateUTC
2013-01-12 00:03:00,66.0,62.0,-100.00,SW,215,3.0,6.0,86,-99.99,,,-99.99,,2013-01-12 05:03:00,
2013-01-12 00:12:00,67.0,62.0,-100.00,SW,230,4.0,6.0,86,-99.99,,,-99.99,,2013-01-12 05:12:00,
2013-01-12 00:22:00,67.0,62.0,-100.00,SSW,205,4.0,6.0,86,-99.99,,,-99.99,,2013-01-12 05:22:00,
2013-01-12 00:32:00,67.0,62.0,-100.00,South,190,5.0,7.0,86,-99.99,,,-99.99,,2013-01-12 05:32:00,
2013-01-12 00:42:00,66.0,62.0,-100.00,South,190,5.0,7.0,86,-99.99,,,-99.99,,2013-01-12 05:42:00,
2013-01-12 00:52:00,66.0,62.0,-100.00,South,190,6.0,9.0,87,-99.99,,,-99.99,,2013-01-12 05:52:00,
2013-01-12 01:03:00,66.0,62.0,-100.00,South,180,5.0,9.0,88,-99.99,,,-99.99,,2013-01-12 06:03:00,
2013-01-12 01:12:00,65.0,62.0,-100.00,South,180,5.0,11.0,89,-99.99,,,-99.99,,2013-01-12 06:12:00,
2013-01-12 01:22:00,65.0,62.0,-100.00,SW,215,4.0,7.0,89,-99.99,,,-99.99,,2013-01-12 06:22:00,
2013-01-12 01:33:00,65.0,62.0,-100.00,SSW,200,4.0,9.0,90,-99.99,,,-99.99,,2013-01-12 06:33:00,
2013-01-12 01:43:00,65.0,62.0,-100.00,South,180,6.0,8.0,90,-99.99,,,-99.99,,2013-01-12 06:43:00,
2013-01-12 01:52:00,65.0,62.0,-100.00,SSW,205,3.0,7.0,90,-99.99,,,-99.99,,2013-01-12 06:52:00,
2013-01-12 02:02:00,64.0,62.0,-100.00,SSW,200,4.0,9.0,91,-99.99,,,-99.99,,2013-01-12 07:02:00,
2013-01-12 02:12:00,64.0,62.0,-100.00,SW,215,4.0,6.0,91,-99.99,,,-99.99,,2013-01-12 07:12:00,
2013-01-12 02:22:00,64.0,61.0,-100.00,SSW,205,3.0,6.0,91,-99.99,,,-99.99,,2013-01-12 07:22:00,
2013-01-12 02:32:00,63.0,61.0,-100.00,SW,225,3.0,6.0,92,-99.99,,,-99.99,,2013-01-12 07:32:00,
2013-01-12 02:42:00,63.0,61.0,-100.00,SW,230,4.0,4.0,92,-99.99,,,-99.99,,2013-01-12 07:42:00,
2013-01-12 02:52:00,63.0,60.0,-100.00,SW,230,3.0,6.0,92,-99.99,,,-99.99,,2013-01-12 07:52:00,
2013-01-12 03:02:00,63.0,60.0,-100.00,SW,230,4.0,6.0,92,-99.99,,,-99.99,,2013-01-12 08:02:00,
2013-01-12 03:12:00,63.0,61.0,-100.00,SW,220,3.0,4.0,93,-99.99,,,-99.99,,2013-01-12 08:12:00,
2013-01-12 03:22:00,62.0,60.0,-100.00,SW,235,1.0,4.0,93,-99.99,,,-99.99,,2013-01-12 08:22:00,
2013-01-12 03:32:00,61.0,59.0,-100.00,SW,220,1.0,2.0,93,-99.99,,,-99.99,,2013-01-12 08:32:00,
2013-01-12 03:42:00,61.0,59.0,-100.00,SW,220,2.0,4.0,93,-99.99,,,-99.99,,2013-01-12 08:42:00,
2013-01-12 03:52:00,62.0,60.0,-100.00,SW,225,2.0,4.0,94,-99.99,,,-99.99,,2013-01-12 08:52:00,
2013-01-12 04:02:00,61.0,59.0,-100.00,WSW,240,2.0,4.0,94,-99.99,,,-99.99,,2013-01-12 09:02:00,
2013-01-12 04:12:00,61.0,59.0,-100.00,SW,235,1.0,3.0,94,-99.99,,,-99.99,,2013-01-12 09:12:00,
2013-01-12 04:22:00,61.0,59.0,-100.00,SW,235,1.0,2.0,94,-99.99,,,-99.99,,2013-01-12 09:22:00,
2013-01-12 04:32:00,60.0,59.0,-100.00,WSW,245,1.0,1.0,94,-99.99,,,-99.99,,2013-01-12 09:32:00,
2013-01-12 04:42:00,61.0,59.0,-100.00,WSW,240,1.0,2.0,94,-99.99,,,-99.99,,2013-01-12 09:42:00,
2013-01-12 04:53:00,61.0,59.0,-100.00,SSW,195,1.0,2.0,94,-99.99,,,-99.99,,2013-01-12 09:53:00,
2013-01-12 05:02:00,61.0,59.0,-100.00,SSW,205,1.0,3.0,94,-99.99,,,-99.99,,2013-01-12 10:02:00,
2013-01-12 05:12:00,61.0,59.0,-100.00,SSW,205,1.0,3.0,94,-99.99,,,-99.99,,2013-01-12 10:12:00,
2013-01-12 05:22:00,59.0,58.0,-100.00,SW,230,1.0,3.0,94,-99.99,,,-99.99,,2013-01-12 10:22:00,
2013-01-12 05:32:00,59.0,58.0,-100.00,SW,235,2.0,3.0,94,-99.99,,,-99.99,,2013-01-12 10:32:00,
2013-01-12 05:43:00,58.0,56.0,-100.00,WSW,255,2.0,4.0,94,-99.99,,,-99.99,,2013-01-12 10:43:00,
2013-01-12 05:52:00,58.0,57.0,-100.00,West,265,2.0,4.0,94,-99.99,,,-99.99,,2013-01-12 10:52:00,
2013-01-12 06:02:00,59.0,57.0,-100.00,WSW,245,2.0,4.0,94,-99.99,,,-99.99,,2013-01-12 11:02:00,
2013-01-12 06:12:00,59.0,57.0,-100.00,WSW,255,3.0,4.0,94,-99.99,,,-99.99,,2013-01-12 11:12:00,
2013-01-12 06:22:00,59.0,57.0,-100.00,SW,235,2.0,4.0,94,-99.99,,,-99.99,,2013-01-12 11:22:00,
2013-01-12 06:33:00,58.0,56.0,-100.00,SW,230,2.0,3.0,94,-99.99,,,-99.99,,2013-01-12 11:33:00,
2013-01-12 06:42:00,59.0,57.0,-100.00,SSW,210,3.0,4.0,94,-99.99,,,-99.99,,2013-01-12 11:42:00,
2013-01-12 06:53:00,58.0,56.0,-100.00,SW,220,1.0,2.0,94,-99.99,,,-99.99,,2013-01-12 11:53:00,
2013-01-12 07:03:00,58.0,56.0,-100.00,South,185,0.0,2.0,94,-99.99,,,-99.99,,2013-01-12 12:03:00,
2013-01-12 07:12:00,58.0,56.0,-100.00,West,270,1.0,1.0,94,-99.99,,,-99.99,,2013-01-12 12:12:00,
2013-01-12 07:22:00,58.0,56.0,-100.00,WSW,255,1.0,1.0,95,-99.99,,,-99.99,,2013-01-12 12:22:00,
2013-01-12 07:33:00,59.0,57.0,-100.00,WSW,245,0.0,1.0,95,-99.99,,,-99.99,,2013-01-12 12:33:00,
2013-01-12 07:43:00,58.0,56.0,-100.00,WSW,245,0.0,0.0,95,-99.99,,,-99.99,,2013-01-12 12:43:00,
2013-01-12 07:52:00,57.0,56.0,-100.00,SW,235,1.0,1.0,95,-99.99,,,-99.99,,2013-01-12 12:52:00,
2013-01-12 08:02:00,57.0,56.0,-100.00,SW,220,2.0,3.0,95,-99.99,,,-99.99,,2013-01-12 13:02:00,
2013-01-12 08:12:00,58.0,57.0,-100.00,SSW,205,2.0,4.0,95,-99.99,,,-99.99,,2013-01-12 13:12:00,
2013-01-12 08:23:00,59.0,58.0,-100.00,SW,215,2.0,4.0,95,-99.99,,,-99.99,,2013-01-12 13:23:00,
2013-01-12 08:33:00,59.0,58.0,-100.00,SW,215,2.0,4.0,95,-99.99,,,-99.99,,2013-01-12 13:33:00,
2013-01-12 08:43:00,60.0,59.0,-100.00,SW,220,3.0,4.0,95,-99.99,,,-99.99,,2013-01-12 13:43:00,
2013-01-12 08:53:00,61.0,59.0,-100.00,SSW,210,4.0,5.0,95,-99.99,,,-99.99,,2013-01-12 13:53:00,
2013-01-12 09:02:00,60.0,59.0,-100.00,SW,215,4.0,5.0,95,-99.99,,,-99.99,,2013-01-12 14:02:00,
2013-01-12 09:12:00,60.0,59.0,-100.00,SW,230,1.0,4.0,95,-99.99,,,-99.99,,2013-01-12 14:12:00,
2013-01-12 09:22:00,61.0,59.0,-100.00,SW,225,1.0,3.0,95,-99.99,,,-99.99,,2013-01-12 14:22:00,
2013-01-12 09:33:00,62.0,61.0,-100.00,SW,215,2.0,5.0,95,-99.99,,,-99.99,,2013-01-12 14:33:00,
2013-01-12 09:43:00,63.0,62.0,-100.00,SW,225,3.0,6.0,95,-99.99,,,-99.99,,2013-01-12 14:43:00,
2013-01-12 09:53:00,63.0,62.0,-100.00,SW,225,3.0,6.0,95,-99.99,,,-99.99,,2013-01-12 14:53:00,
2013-01-12 10:03:00,64.0,62.0,-100.00,SW,215,4.0,6.0,95,-99.99,,,-99.99,,2013-01-12 15:03:00,
2013-01-12 10:13:00,64.0,63.0,-100.00,SW,225,4.0,6.0,94,-99.99,,,-99.99,,2013-01-12 15:13:00,
2013-01-12 10:23:00,65.0,63.0,-100.00,SW,220,2.0,6.0,94,-99.99,,,-99.99,,2013-01-12 15:23:00,
2013-01-12 10:30:00,71.0,61.0,-100.00,SW,230,5.0,8.0,72,-99.99,,,-99.99,,2013-01-12 15:30:00,
2013-01-12 10:33:00,65.0,63.0,-100.00,WSW,250,3.0,6.0,93,-99.99,,,-99.99,,2013-01-12 15:33:00,
2013-01-12 10:43:00,67.0,64.0,-100.00,SW,220,3.0,4.0,90,-99.99,,,-99.99,,2013-01-12 15:43:00,
2013-01-12 10:53:00,69.0,62.0,-100.00,West,265,5.0,7.0,79,-99.99,,,-99.99,,2013-01-12 15:53:00,
2013-01-12 11:03:00,71.0,61.0,-100.00,SW,230,5.0,8.0,72,-99.99,,,-99.99,,2013-01-12 16:03:00,
2013-01-12 11:12:00,71.0,61.0,-100.00,SW,230,5.0,8.0,72,-99.99,,,-99.99,,2013-01-12 16:12:00,
2013-01-12 11:23:00,71.0,61.0,-100.00,SW,230,5.0,8.0,72,-99.99,,,-99.99,,2013-01-12 16:23:00,
2013-01-12 12:23:00,77.0,58.0,-100.00,WSW,255,11.0,16.0,53,-99.99,,,-99.99,,2013-01-12 17:23:00,
2013-01-12 12:33:00,76.0,58.0,-100.00,SW,235,12.0,16.0,53,-99.99,,,-99.99,,2013-01-12 17:33:00,
2013-01-12 12:43:00,78.0,58.0,-100.00,WSW,240,9.0,15.0,50,-99.99,,,-99.99,,2013-01-12 17:43:00,
2013-01-12 12:53:00,77.0,56.0,-100.00,WSW,240,10.0,16.0,48,-99.99,,,-99.99,,2013-01-12 17:53:00,
2013-01-12 13:03:00,78.0,56.0,-100.00,WSW,240,11.0,15.0,47,-99.99,,,-99.99,,2013-01-12 18:03:00,
2013-01-12 13:12:00,78.0,55.0,-100.00,SW,225,9.0,19.0,46,-99.99,,,-99.99,,2013-01-12 18:12:00,
2013-01-12 13:23:00,80.0,56.0,-100.00,West,280,13.0,18.0,44,-99.99,,,-99.99,,2013-01-12 18:23:00,
2013-01-12 13:33:00,79.0,56.0,-100.00,South,185,8.0,15.0,44,-99.99,,,-99.99,,2013-01-12 18:33:00,
2013-01-12 13:43:00,80.0,55.0,-100.00,WSW,240,4.0,16.0,42,-99.99,,,-99.99,,2013-01-12 18:43:00,
2013-01-12 13:52:00,80.0,54.0,-100.00,SW,215,8.0,15.0,42,-99.99,,,-99.99,,2013-01-12 18:52:00,
2013-01-12 14:03:00,80.0,54.0,-100.00,SSW,210,5.0,16.0,42,-99.99,,,-99.99,,2013-01-12 19:03:00,
2013-01-12 14:12:00,80.0,53.0,-100.00,WSW,250,10.0,16.0,40,-99.99,,,-99.99,,2013-01-12 19:12:00,
2013-01-12 14:23:00,81.0,53.0,-100.00,WSW,250,7.0,14.0,39,-99.99,,,-99.99,,2013-01-12 19:23:00,
2013-01-12 14:33:00,81.0,53.0,-100.00,WSW,240,8.0,16.0,39,-99.99,,,-99.99,,2013-01-12 19:33:00,
2013-01-12 14:43:00,81.0,54.0,-100.00,WSW,245,9.0,17.0,39,-99.99,,,-99.99,,2013-01-12 19:43:00,
2013-01-12 14:52:00,81.0,54.0,-100.00,SW,230,6.0,14.0,39,-99.99,,,-99.99,,2013-01-12 19:52:00,
2013-01-12 15:03:00,81.0,53.0,-100.00,WSW,250,8.0,14.0,38,-99.99,,,-99.99,,2013-01-12 20:03:00,
2013-01-12 15:13:00,81.0,53.0,-100.00,WSW,250,4.0,14.0,38,-99.99,,,-99.99,,2013-01-12 20:13:00,
2013-01-12 15:22:00,81.0,53.0,-100.00,WSW,250,11.0,14.0,37,-99.99,,,-99.99,,2013-01-12 20:22:00,
2013-01-12 15:33:00,82.0,53.0,-100.00,SW,235,8.0,13.0,37,-99.99,,,-99.99,,2013-01-12 20:33:00,
2013-01-12 15:42:00,80.0,52.0,-100.00,SSW,200,4.0,13.0,37,-99.99,,,-99.99,,2013-01-12 20:42:00,
2013-01-12 15:53:00,81.0,53.0,-100.00,West,260,7.0,14.0,37,-99.99,,,-99.99,,2013-01-12 20:53:00,
2013-01-12 16:03:00,81.0,52.0,-100.00,WSW,240,7.0,14.0,37,-99.99,,,-99.99,,2013-01-12 21:03:00,
2013-01-12 16:12:00,79.0,51.0,-100.00,SSW,200,6.0,13.0,38,-99.99,,,-99.99,,2013-01-12 21:12:00,
2013-01-12 16:22:00,78.0,51.0,-100.00,SW,215,6.0,10.0,39,-99.99,,,-99.99,,2013-01-12 21:22:00,
2013-01-12 16:33:00,79.0,52.0,-100.00,SW,215,9.0,16.0,39,-99.99,,,-99.99,,2013-01-12 21:33:00,
2013-01-12 16:43:00,79.0,52.0,-100.00,SW,235,6.0,12.0,39,-99.99,,,-99.99,,2013-01-12 21:43:00,
2013-01-12 16:52:00,78.0,51.0,-100.00,WSW,240,8.0,14.0,39,-99.99,,,-99.99,,2013-01-12 21:52:00,
2013-01-12 17:03:00,77.0,51.0,-100.00,SSW,205,6.0,10.0,40,-99.99,,,-99.99,,2013-01-12 22:03:00,
2013-01-12 17:12:00,77.0,51.0,-100.00,SSW,205,4.0,7.0,41,-99.99,,,-99.99,,2013-01-12 22:12:00,
2013-01-12 17:23:00,76.0,51.0,-100.00,South,175,6.0,11.0,42,-99.99,,,-99.99,,2013-01-12 22:23:00,
2013-01-12 17:33:00,76.0,51.0,-100.00,South,185,5.0,9.0,42,-99.99,,,-99.99,,2013-01-12 22:33:00,
2013-01-12 17:43:00,75.0,51.0,-100.00,South,180,6.0,9.0,43,-99.99,,,-99.99,,2013-01-12 22:43:00,
2013-01-12 17:52:00,75.0,51.0,-100.00,SSW,195,4.0,9.0,44,-99.99,,,-99.99,,2013-01-12 22:52:00,
2013-01-12 18:03:00,74.0,51.0,-100.00,SSW,195,4.0,10.0,45,-99.99,,,-99.99,,2013-01-12 23:03:00,
2013-01-12 18:13:00,74.0,52.0,-100.00,South,180,5.0,9.0,46,-99.99,,,-99.99,,2013-01-12 23:13:00,
2013-01-12 18:23:00,74.0,52.0,-100.00,South,180,5.0,9.0,46,-99.99,,,-99.99,,2013-01-12 23:23:00,
2013-01-12 18:33:00,73.0,52.0,-100.00,South,190,4.0,7.0,48,-99.99,,,-99.99,,2013-01-12 23:33:00,
2013-01-12 18:43:00,72.0,52.0,-100.00,South,175,5.0,6.0,49,-99.99,,,-99.99,,2013-01-12 23:43:00,
2013-01-12 18:53:00,72.0,52.0,-100.00,South,175,4.0,6.0,50,-99.99,,,-99.99,,2013-01-12 23:53:00,
2013-01-12 19:03:00,72.0,52.0,-100.00,South,185,4.0,6.0,50,-99.99,,,-99.99,,2013-01-13 00:03:00,
2013-01-12 19:12:00,71.0,52.0,-100.00,SSE,160,4.0,7.0,51,-99.99,,,-99.99,,2013-01-13 00:12:00,
2013-01-12 19:23:00,71.0,52.0,-100.00,South,180,4.0,6.0,51,-99.99,,,-99.99,,2013-01-13 00:23:00,
2013-01-12 19:33:00,71.0,52.0,-100.00,SSW,195,4.0,6.0,52,-99.99,,,-99.99,,2013-01-13 00:33:00,
2013-01-12 19:43:00,71.0,53.0,-100.00,South,185,4.0,6.0,53,-99.99,,,-99.99,,2013-01-13 00:43:00,
2013-01-12 19:52:00,70.0,53.0,-100.00,South,170,6.0,8.0,54,-99.99,,,-99.99,,2013-01-13 00:52:00,
2013-01-12 20:03:00,70.0,53.0,-100.00,South,170,6.0,9.0,55,-99.99,,,-99.99,,2013-01-13 01:03:00,
2013-01-12 20:12:00,70.0,53.0,-100.00,South,180,5.0,10.0,55,-99.99,,,-99.99,,2013-01-13 01:12:00,
2013-01-12 20:23:00,70.0,54.0,-100.00,South,175,4.0,8.0,56,-99.99,,,-99.99,,2013-01-13 01:23:00,
2013-01-12 20:33:00,69.0,54.0,-100.00,South,170,5.0,7.0,57,-99.99,,,-99.99,,2013-01-13 01:33:00,
2013-01-12 20:43:00,70.0,54.0,-100.00,South,190,4.0,9.0,57,-99.99,,,-99.99,,2013-01-13 01:43:00,
2013-01-12 20:52:00,69.0,54.0,-100.00,SSW,195,5.0,8.0,58,-99.99,,,-99.99,,2013-01-13 01:52:00,
2013-01-12 21:02:00,69.0,54.0,-100.00,South,175,5.0,7.0,59,-99.99,,,-99.99,,2013-01-13 02:02:00,
2013-01-12 21:13:00,69.0,54.0,-100.00,South,185,4.0,6.0,60,-99.99,,,-99.99,,2013-01-13 02:13:00,
2013-01-12 21:23:00,68.0,54.0,-100.00,SW,215,1.0,4.0,62,-99.99,,,-99.99,,2013-01-13 02:23:00,
2013-01-12 21:33:00,67.0,55.0,-100.00,South,190,1.0,4.0,65,-99.99,,,-99.99,,2013-01-13 02:33:00,
2013-01-12 21:43:00,66.0,55.0,-100.00,SSW,205,1.0,4.0,68,-99.99,,,-99.99,,2013-01-13 02:43:00,
2013-01-12 21:53:00,66.0,55.0,-100.00,South,190,4.0,6.0,68,-99.99,,,-99.99,,2013-01-13 02:53:00,
2013-01-12 22:03:00,66.0,56.0,-100.00,South,185,3.0,6.0,69,-99.99,,,-99.99,,2013-01-13 03:03:00,
2013-01-12 22:12:00,67.0,56.0,-100.00,SSW,200,3.0,6.0,68,-99.99,,,-99.99,,2013-01-13 03:12:00,
2013-01-12 22:22:00,67.0,56.0,-100.00,South,180,4.0,6.0,68,-99.99,,,-99.99,,2013-01-13 03:22:00,
2013-01-12 22:33:00,66.0,55.0,-100.00,SSW,200,2.0,4.0,69,-99.99,,,-99.99,,2013-01-13 03:33:00,
2013-01-12 22:43:00,65.0,56.0,-100.00,South,175,0.0,4.0,73,-99.99,,,-99.99,,2013-01-13 03:43:00,
2013-01-12 22:52:00,64.0,56.0,-100.00,SSW,195,0.0,2.0,75,-99.99,,,-99.99,,2013-01-13 03:52:00,
2013-01-12 23:03:00,63.0,56.0,-100.00,SSW,210,1.0,3.0,78,-99.99,,,-99.99,,2013-01-13 04:03:00,
2013-01-12 23:12:00,63.0,57.0,-100.00,SSW,195,2.0,4.0,79,-99.99,,,-99.99,,2013-01-13 04:12:00,
2013-01-12 23:22:00,64.0,57.0,-100.00,SSW,200,1.0,4.0,79,-99.99,,,-99.99,,2013-01-13 04:22:00,
2013-01-12 23:33:00,63.0,56.0,-100.00,SSW,210,1.0,4.0,80,-99.99,,,-99.99,,2013-01-13 04:33:00,
2013-01-12 23:43:00,64.0,58.0,-100.00,South,185,4.0,6.0,81,-99.99,,,-99.99,,2013-01-13 04:43:00,
2013-01-12 23:52:00,64.0,58.0,-100.00,South,180,2.0,6.0,80,-99.99,,,-99.99,,2013-01-13 04:52:00,